When you browse on this site, cookies collect data to enhance your experience and personalize the content and advertising you see.
Visit our Privacy Policy to learn more. By continuing to use the site, you agree to this use of cookies and data.
  • Em Portugal
  • Lista de países
  • Para 7 dias
  • Temperatura da água
  • Mapas de satélite
  • Mapa do tempo
  • Widgets de tempo
  • user-avatar
    Iniciar Sessão

    Previsão horária em Afanoskovo

    Hoje, 21 Fevereiro, Quinta-feira

    Tempo Temperatura Precipitação Vento Pressão Humidade
    00:00 -8°C° 0.1 mm 6 m/s 732 mmHg 77%
    01:00 -8°C° 0.1 mm 7 m/s 732 mmHg 75%
    02:00 -8°C° 0 mm 5 m/s 733 mmHg 75%
    03:00 -9°C° 0.1 mm 6 m/s 733 mmHg 74%
    04:00 -9°C° 0.1 mm 6 m/s 733 mmHg 74%
    05:00 -11°C° 0.1 mm 7 m/s 734 mmHg 73%
    06:00 -11°C° 0.1 mm 7 m/s 735 mmHg 72%
    07:00 -11°C° 0.1 mm 7 m/s 735 mmHg 71%
    08:00 -11°C° 0 mm 7 m/s 736 mmHg 69%
    09:00 -10°C° 0 mm 6 m/s 737 mmHg 68%
    10:00 -10°C° 0 mm 6 m/s 738 mmHg 67%
    11:00 -10°C° 0 mm 6 m/s 738 mmHg 65%
    12:00 -10°C° 0 mm 6 m/s 739 mmHg 65%
    13:00 -10°C° 0 mm 6 m/s 739 mmHg 64%
    14:00 -10°C° 0 mm 6 m/s 740 mmHg 64%
    15:00 -10°C° 0 mm 6 m/s 741 mmHg 65%
    16:00 -10°C° 0 mm 5 m/s 741 mmHg 66%
    17:00 -11°C° 0 mm 5 m/s 742 mmHg 67%
    18:00 -11°C° 0 mm 5 m/s 742 mmHg 69%
    19:00 -12°C° 0 mm 5 m/s 743 mmHg 70%
    20:00 -11°C° 0 mm 4 m/s 743 mmHg 72%
    21:00 -12°C° 0 mm 5 m/s 744 mmHg 72%
    22:00 -12°C° 0 mm 5 m/s 745 mmHg 73%
    23:00 -12°C° 0 mm 5 m/s 745 mmHg 73%

    Amanhã, 22 Fevereiro, Sexta-feira

    Tempo Temperatura Precipitação Vento Pressão Humidade
    00:00 -12°C° 0 mm 5 m/s 746 mmHg 73%
    01:00 -12°C° 0 mm 5 m/s 746 mmHg 74%
    02:00 -12°C° 0 mm 5 m/s 747 mmHg 74%
    03:00 -13°C° 0 mm 5 m/s 747 mmHg 74%
    04:00 -13°C° 0 mm 5 m/s 748 mmHg 74%
    05:00 -14°C° 0 mm 6 m/s 748 mmHg 74%
    06:00 -14°C° 0 mm 6 m/s 749 mmHg 74%
    07:00 -14°C° 0 mm 6 m/s 749 mmHg 74%
    08:00 -14°C° 0 mm 6 m/s 750 mmHg 74%
    09:00 -12°C° 0 mm 6 m/s 750 mmHg 71%
    10:00 -11°C° 0 mm 6 m/s 751 mmHg 69%
    11:00 -11°C° 0 mm 7 m/s 752 mmHg 66%
    12:00 -10°C° 0 mm 6 m/s 752 mmHg 65%
    13:00 -10°C° 0 mm 6 m/s 752 mmHg 64%
    14:00 -9°C° 0 mm 6 m/s 752 mmHg 62%
    15:00 -9°C° 0 mm 6 m/s 753 mmHg 64%
    16:00 -10°C° 0 mm 6 m/s 753 mmHg 66%
    17:00 -10°C° 0 mm 5 m/s 754 mmHg 68%
    18:00 -10°C° 0 mm 5 m/s 754 mmHg 71%
    19:00 -11°C° 0 mm 5 m/s 755 mmHg 74%
    20:00 -10°C° 0 mm 4 m/s 756 mmHg 77%
    21:00 -11°C° 0 mm 4 m/s 756 mmHg 78%
    22:00 -10°C° 0 mm 3 m/s 756 mmHg 80%
    23:00 -12°C° 0 mm 3 m/s 756 mmHg 81%

    Depois de amanhã, 23 Fevereiro, Sábado

    Tempo Temperatura Precipitação Vento Pressão Humidade
    00:00 -10°C° 0 mm 2 m/s 757 mmHg 82%
    01:00 -12°C° 0 mm 2 m/s 757 mmHg 83%
    02:00 -12°C° 0 mm 2 m/s 757 mmHg 84%
    03:00 -12°C° 0 mm 2 m/s 757 mmHg 84%
    04:00 -12°C° 0 mm 2 m/s 757 mmHg 84%
    05:00 -12°C° 0 mm 2 m/s 757 mmHg 84%
    06:00 -12°C° 0 mm 2 m/s 757 mmHg 80%
    07:00 -10°C° 0 mm 2 m/s 757 mmHg 77%
    08:00 -10°C° 0 mm 2 m/s 757 mmHg 74%
    09:00 -8°C° 0 mm 2 m/s 757 mmHg 68%
    10:00 -8°C° 0 mm 3 m/s 756 mmHg 62%
    11:00 -7°C° 0 mm 3 m/s 756 mmHg 56%
    12:00 -8°C° 0 mm 4 m/s 755 mmHg 60%
    13:00 -8°C° 0 mm 4 m/s 755 mmHg 63%
    14:00 -7°C° 0 mm 4 m/s 754 mmHg 67%
    15:00 -7°C° 0.4 mm 4 m/s 754 mmHg 74%
    16:00 -8°C° 0.4 mm 5 m/s 753 mmHg 81%
    17:00 -8°C° 0.4 mm 5 m/s 753 mmHg 88%
    18:00 -7°C° 0.3 mm 5 m/s 752 mmHg 88%
    19:00 -7°C° 0.3 mm 5 m/s 752 mmHg 88%
    20:00 -7°C° 0.3 mm 5 m/s 751 mmHg 88%
    21:00 -5°C° 0.1 mm 4 m/s 751 mmHg 89%
    22:00 -5°C° 0.1 mm 4 m/s 751 mmHg 90%
    23:00 -4°C° 0.1 mm 4 m/s 751 mmHg 91%

    24 Fevereiro, Domingo

    Tempo Temperatura Precipitação Vento Pressão Humidade
    00:00 -4°C° 0.1 mm 4 m/s 751 mmHg 92%
    01:00 -4°C° 0.1 mm 4 m/s 750 mmHg 92%
    02:00 -3°C° 0.1 mm 4 m/s 750 mmHg 93%
    03:00 -3°C° 0 mm 4 m/s 750 mmHg 94%
    04:00 -3°C° 0 mm 4 m/s 750 mmHg 94%
    05:00 -3°C° 0 mm 4 m/s 750 mmHg 95%
    06:00 -2°C° 0 mm 3 m/s 750 mmHg 95%
    07:00 -2°C° 0 mm 3 m/s 750 mmHg 95%
    08:00 -2°C° 0 mm 3 m/s 750 mmHg 95%
    09:00 -1°C° 0 mm 3 m/s 750 mmHg 95%
    10:00 -1°C° 0 mm 3 m/s 750 mmHg 94%
    11:00 0°C° 0 mm 3 m/s 750 mmHg 94%
    12:00 0°C° 0 mm 3 m/s 750 mmHg 93%
    13:00 +1°C° 0 mm 3 m/s 750 mmHg 93%
    14:00 +1°C° 0 mm 3 m/s 749 mmHg 93%
    15:00 +1°C° 0 mm 3 m/s 749 mmHg 94%
    16:00 +1°C° 0 mm 3 m/s 749 mmHg 95%
    17:00 +1°C° 0 mm 3 m/s 749 mmHg 96%
    18:00 +1°C° 0.1 mm 3 m/s 749 mmHg 96%
    19:00 +1°C° 0.1 mm 3 m/s 748 mmHg 96%
    20:00 -1°C° 0.1 mm 4 m/s 748 mmHg 96%
    21:00 -1°C° 0 mm 4 m/s 748 mmHg 96%
    22:00 0°C° 0 mm 3 m/s 748 mmHg 96%
    23:00 0°C° 0 mm 3 m/s 747 mmHg 96%

    25 Fevereiro, Segunda-feira

    Tempo Temperatura Precipitação Vento Pressão Humidade
    00:00 -1°C° 0 mm 4 m/s 747 mmHg 96%
    01:00 -1°C° 0 mm 4 m/s 747 mmHg 96%
    02:00 -1°C° 0 mm 4 m/s 747 mmHg 96%
    03:00 -1°C° 0.1 mm 4 m/s 747 mmHg 95%
    04:00 -1°C° 0.1 mm 4 m/s 746 mmHg 95%
    05:00 -1°C° 0.1 mm 4 m/s 746 mmHg 94%
    06:00 -1°C° 0 mm 4 m/s 746 mmHg 93%
    07:00 -1°C° 0 mm 4 m/s 746 mmHg 91%
    08:00 -1°C° 0 mm 4 m/s 747 mmHg 90%
    09:00 -1°C° 0 mm 4 m/s 746 mmHg 88%
    10:00 -1°C° 0 mm 4 m/s 746 mmHg 87%
    11:00 -1°C° 0 mm 4 m/s 746 mmHg 86%
    12:00 0°C° 0 mm 5 m/s 746 mmHg 82%
    13:00 0°C° 0 mm 5 m/s 746 mmHg 78%
    14:00 +1°C° 0 mm 6 m/s 745 mmHg 74%
    15:00 0°C° 0 mm 5 m/s 745 mmHg 76%
    16:00 0°C° 0 mm 5 m/s 745 mmHg 78%
    17:00 -1°C° 0 mm 5 m/s 745 mmHg 79%
    18:00 -1°C° 0 mm 4 m/s 745 mmHg 81%
    19:00 -2°C° 0 mm 4 m/s 744 mmHg 83%
    20:00 -2°C° 0 mm 4 m/s 744 mmHg 85%
    21:00 -3°C° 0 mm 4 m/s 744 mmHg 87%
    22:00 -3°C° 0 mm 4 m/s 744 mmHg 89%
    23:00 -3°C° 0 mm 4 m/s 744 mmHg 91%

    26 Fevereiro, Terça-feira

    Tempo Temperatura Precipitação Vento Pressão Humidade
    00:00 -3°C° 0 mm 4 m/s 743 mmHg 91%
    01:00 -2°C° 0 mm 3 m/s 743 mmHg 91%
    02:00 -2°C° 0 mm 3 m/s 743 mmHg 92%
    03:00 -2°C° 0 mm 3 m/s 742 mmHg 92%
    04:00 -2°C° 0 mm 3 m/s 741 mmHg 91%
    05:00 -2°C° 0 mm 3 m/s 741 mmHg 91%
    06:00 -2°C° 0 mm 3 m/s 740 mmHg 91%
    07:00 -2°C° 0 mm 3 m/s 739 mmHg 91%
    08:00 -2°C° 0 mm 3 m/s 739 mmHg 91%
    09:00 -2°C° 0.3 mm 3 m/s 738 mmHg 91%
    10:00 -2°C° 0.3 mm 3 m/s 737 mmHg 91%
    11:00 -1°C° 0.3 mm 3 m/s 737 mmHg 90%
    12:00 -1°C° 0.5 mm 3 m/s 736 mmHg 90%
    13:00 -1°C° 0.5 mm 3 m/s 735 mmHg 90%
    14:00 0°C° 0.5 mm 3 m/s 734 mmHg 89%
    15:00 0°C° 0.6 mm 3 m/s 733 mmHg 90%
    16:00 0°C° 0.6 mm 3 m/s 733 mmHg 91%
    17:00 -1°C° 0.6 mm 4 m/s 733 mmHg 92%
    18:00 -1°C° 0.1 mm 4 m/s 734 mmHg 91%
    19:00 -2°C° 0.1 mm 4 m/s 735 mmHg 90%
    20:00 -2°C° 0.1 mm 5 m/s 736 mmHg 89%
    21:00 -4°C° 0.1 mm 5 m/s 737 mmHg 87%
    22:00 -4°C° 0.1 mm 5 m/s 739 mmHg 85%
    23:00 -3°C° 0.1 mm 4 m/s 740 mmHg 84%
    Mostrar mais